{"data":{"norad_id":64458,"epoch":"2026-05-25T00:37:25.619808Z","epoch_age_seconds":69203,"freshness":"FRESH","line1":"1 64458U 25130W   26145.02599097  .00907550  00000+0  27213-1 0  9998","line2":"2 64458  53.1580  93.7315 0004011 187.2691 172.8253 15.31620783 52392","mean_motion":15.31620783,"eccentricity":0.0004011,"inclination_deg":53.158,"raan_deg":93.7315,"arg_perigee_deg":187.2691,"mean_anomaly_deg":172.8253,"bstar":0.027213,"rev_number":5239,"period_min":94.01805041973,"perigee_km":468.22896787506,"apogee_km":473.72332644171,"semimajor_km":6849.1131471584,"source":"CELESTRAK","updated_at":"2026-05-25T13:38:20.452833Z"}}